Melfa, VA

9:43 PM EST on January 18, 2018 (GMT -0500)
Accomack County

Weather History for KMFV - January, 2014

Change the Weather History Date:

Saturday, January 4, 2014

  Actual Average (KWAL) Record (KWAL)
Temperature  
Mean Temperature 30 °F -  
Max Temperature 42 °F 45 °F 72 °F (2004)
Min Temperature 17 °F 30 °F 14 °F (1981)
Degree Days  
Heating Degree Days 36    
Moisture  
Dew Point 17 °F    
Average Humidity 58    
Maximum Humidity 81    
Minimum Humidity 29    
Precipitation  
Precipitation 0.00 in - - ()
Sea Level Pressure  
Sea Level Pressure 30.46 in    
Wind  
Wind Speed 3 mph (South)    
Max Wind Speed 9 mph    
Max Gust Speed -    
Visibility 10 miles    
Events      
Averages and records for this station are not official NWS values.
T = Trace of Precipitation, MM = Missing Value Source: NWS Daily Summary

Daily Weather History Graph

Daily Weather History Graph

Search for Another Location

Airport or City:

Trip Planner

Search our weather history database for the weather conditions in past years. The results will help you decide how hot, cold, wet, or windy it might be!

Date:

Astronomy

Jan. 04, 2014 Rise Set
Actual Time 7:18 AM EST 4:57 PM EST
Civil Twilight 6:49 AM EST 5:26 PM EST
Nautical Twilight 6:16 AM EST 5:59 PM EST
Astronomical Twilight 5:44 AM EST 6:31 PM EST
Moon 9:27 AM EST (1/4) 9:09 PM EST (1/4)
Length of Visible Light 10h 37m
Length of Day
9h 39m
Waxing Crescent, 15% of the Moon is Illuminated
Jan 4
Waxing Crescent
Jan 7
First Quarter
Jan 15
Full
Jan 24
Last Quarter
Jan 30
New

Hourly Weather History & Observations

Time (EST) Temp. Windchill Dew Point Humidity Pressure Visibility Wind Dir Wind Speed Gust Speed Precip Events Conditions
12:15 AM 21.2 °F 14.9 °F 5.0 °F 50% 30.49 in 10.0 mi NNE 4.6 mph - N/A   Clear
12:35 AM 21.2 °F 16.4 °F 5.0 °F 50% 30.50 in 10.0 mi NE 3.5 mph - N/A   Clear
12:55 AM 21.2 °F 14.9 °F 3.2 °F 46% 30.50 in 10.0 mi NE 4.6 mph - N/A   Unknown
1:15 AM 21.2 °F 14.9 °F 5.0 °F 50% 30.50 in 10.0 mi NNE 4.6 mph - N/A   Clear
1:35 AM 21.2 °F - 3.2 °F 46% 30.50 in 10.0 mi Calm Calm - N/A   Clear
1:55 AM 21.2 °F - 6.8 °F 54% 30.50 in 10.0 mi Calm Calm - N/A   Clear
2:15 AM 21.2 °F - 5.0 °F 50% 30.51 in 10.0 mi Calm Calm - N/A   Clear
2:35 AM 19.4 °F - 5.0 °F 54% 30.51 in 10.0 mi Calm Calm - N/A   Clear
2:55 AM 19.4 °F - 5.0 °F 54% 30.51 in 10.0 mi Calm Calm - N/A   Clear
3:16 AM 17.6 °F - 10.4 °F 73% 30.52 in 10.0 mi Calm Calm - N/A   Clear
3:35 AM 17.6 °F - 8.6 °F 68% 30.52 in 10.0 mi Calm Calm - N/A   Clear
3:55 AM 17.6 °F - 8.6 °F 68% 30.52 in 10.0 mi Calm Calm - N/A   Clear
4:15 AM 17.6 °F 12.3 °F 8.6 °F 68% 30.51 in 10.0 mi NE 3.5 mph - N/A   Clear
4:35 AM 17.6 °F - 10.4 °F 73% 30.51 in 10.0 mi Calm Calm - N/A   Clear
4:55 AM 17.6 °F 12.3 °F 8.6 °F 68% 30.51 in 10.0 mi NE 3.5 mph - N/A   Clear
5:16 AM 17.6 °F 12.3 °F 10.4 °F 73% 30.51 in 10.0 mi NE 3.5 mph - N/A   Clear
5:35 AM 17.6 °F - 8.6 °F 68% 30.52 in 10.0 mi Calm Calm - N/A   Clear
5:55 AM 17.6 °F - 10.4 °F 73% 30.53 in 10.0 mi Calm Calm - N/A   Clear
6:15 AM 19.4 °F - 10.4 °F 68% 30.54 in 10.0 mi Calm Calm - N/A   Clear
6:35 AM 17.6 °F - 10.4 °F 73% 30.54 in 10.0 mi Calm Calm - N/A   Clear
6:55 AM 17.6 °F - 10.4 °F 73% 30.55 in 10.0 mi Calm Calm - N/A   Clear
7:15 AM 17.6 °F - 10.4 °F 73% 30.55 in 10.0 mi Calm Calm - N/A   Clear
7:35 AM 19.4 °F - 10.4 °F 68% 30.56 in 10.0 mi Calm Calm - N/A   Clear
7:55 AM 19.4 °F - 10.4 °F 68% 30.56 in 10.0 mi Calm Calm - N/A   Clear
8:15 AM 21.2 °F 16.4 °F 8.6 °F 58% 30.55 in 10.0 mi NE 3.5 mph - N/A   Clear
8:35 AM 24.8 °F - 6.8 °F 46% 30.56 in 10.0 mi Calm Calm - N/A   Clear
8:55 AM 26.6 °F - 8.6 °F 47% 30.57 in 10.0 mi Calm Calm - N/A   Clear
9:15 AM 28.4 °F - 12.2 °F 51% 30.57 in 10.0 mi Calm Calm - N/A   Clear
9:35 AM 30.2 °F - 14.0 °F 51% 30.56 in 10.0 mi Calm Calm - N/A   Clear
9:55 AM 32.0 °F - 19.4 °F 60% 30.55 in 10.0 mi Calm Calm - N/A   Clear
10:15 AM 33.8 °F - 19.4 °F 56% 30.53 in 10.0 mi Calm Calm - N/A   Clear
10:35 AM 35.6 °F - 19.4 °F 52% 30.52 in 10.0 mi Calm Calm - N/A   Clear
10:55 AM 35.6 °F 32.8 °F 19.4 °F 52% 30.51 in 10.0 mi SSW 3.5 mph - N/A   Clear
11:15 AM 37.4 °F 34.9 °F 15.8 °F 41% 30.50 in 10.0 mi SW 3.5 mph - N/A   Clear
11:35 AM 37.4 °F 33.8 °F 15.8 °F 41% 30.49 in 10.0 mi SSW 4.6 mph - N/A   Clear
11:55 AM 37.4 °F - 17.6 °F 45% 30.47 in 10.0 mi Calm Calm - N/A   Clear
12:17 PM 39.2 °F - 15.8 °F 39% 30.45 in 10.0 mi Calm Calm - N/A   Clear
12:36 PM 39.2 °F - 14.0 °F 36% 30.44 in 10.0 mi Calm Calm - N/A   Clear
12:55 PM 41.0 °F 39.0 °F 10.4 °F 29% 30.44 in 10.0 mi WSW 3.5 mph - N/A   Clear
1:15 PM 41.0 °F 38.0 °F 12.2 °F 31% 30.44 in 10.0 mi SSE 4.6 mph - N/A   Clear
1:35 PM 41.0 °F 39.0 °F 15.8 °F 36% 30.44 in 10.0 mi SSE 3.5 mph - N/A   Clear
1:55 PM 41.0 °F 36.4 °F 17.6 °F 39% 30.43 in 10.0 mi SE 6.9 mph - N/A   Clear
2:15 PM 41.0 °F 35.8 °F 15.8 °F 36% 30.43 in 10.0 mi SSE 8.1 mph - N/A   Clear
2:35 PM 41.0 °F 37.1 °F 12.2 °F 31% 30.43 in 10.0 mi South 5.8 mph - N/A   Clear
2:55 PM 41.0 °F 38.0 °F 14.0 °F 33% 30.42 in 10.0 mi South 4.6 mph - N/A   Clear
3:15 PM 39.2 °F 33.6 °F 14.0 °F 36% 30.42 in 10.0 mi South 8.1 mph - N/A   Clear
3:35 PM 39.2 °F 34.2 °F 10.4 °F 31% 30.42 in 10.0 mi South 6.9 mph - N/A   Clear
3:55 PM 39.2 °F 37.0 °F 19.4 °F 45% 30.42 in 10.0 mi South 3.5 mph - N/A   Clear
4:15 PM 39.2 °F 37.0 °F 23.0 °F 52% 30.41 in 10.0 mi South 3.5 mph - N/A   Clear
4:35 PM 39.2 °F 37.0 °F 24.8 °F 56% 30.41 in 10.0 mi South 3.5 mph - N/A   Clear
4:55 PM 37.4 °F 33.8 °F 26.6 °F 65% 30.40 in 10.0 mi South 4.6 mph - N/A   Clear
5:15 PM 37.4 °F 32.8 °F 26.6 °F 65% 30.39 in 10.0 mi South 5.8 mph - N/A   Clear
5:35 PM 37.4 °F 33.8 °F 28.4 °F 70% 30.38 in 10.0 mi SSE 4.6 mph - N/A   Clear
5:55 PM 37.4 °F 34.9 °F 28.4 °F 70% 30.39 in 10.0 mi South 3.5 mph - N/A   Clear
6:15 PM 35.6 °F 30.7 °F 28.4 °F 75% 30.39 in 10.0 mi South 5.8 mph - N/A   Clear
6:35 PM 37.4 °F 32.1 °F 28.4 °F 70% 30.39 in 10.0 mi South 6.9 mph - N/A   Scattered Clouds
6:55 PM 37.4 °F 32.8 °F 30.2 °F 75% 30.38 in 10.0 mi South 5.8 mph - N/A   Scattered Clouds
7:15 PM 39.2 °F 34.2 °F 30.2 °F 70% 30.38 in 10.0 mi South 6.9 mph - N/A   Mostly Cloudy
7:35 PM 41.0 °F 36.4 °F 32.0 °F 70% 30.37 in 10.0 mi South 6.9 mph - N/A   Mostly Cloudy
7:55 PM 41.0 °F 35.8 °F 32.0 °F 70% 30.38 in 10.0 mi South 8.1 mph - N/A   Clear
8:15 PM 41.0 °F 36.4 °F 30.2 °F 65% 30.37 in 10.0 mi SSW 6.9 mph - N/A   Clear
8:35 PM 41.0 °F 35.8 °F 30.2 °F 65% 30.36 in 10.0 mi South 8.1 mph - N/A   Clear
8:55 PM 41.0 °F 36.4 °F 30.2 °F 65% 30.37 in 10.0 mi SSW 6.9 mph - N/A   Clear
9:15 PM 41.0 °F 36.4 °F 32.0 °F 70% 30.35 in 10.0 mi South 6.9 mph - N/A   Clear
9:35 PM 41.0 °F 35.2 °F 30.2 °F 65% 30.37 in 10.0 mi South 9.2 mph - N/A   Unknown
9:55 PM 42.8 °F 38.6 °F 32.0 °F 66% 30.36 in 10.0 mi South 6.9 mph - N/A   Clear
10:15 PM 41.0 °F 37.1 °F 32.0 °F 70% 30.35 in 10.0 mi South 5.8 mph - N/A   Clear
10:35 PM 41.0 °F 38.0 °F 32.0 °F 70% 30.33 in 10.0 mi South 4.6 mph - N/A   Clear
10:55 PM 39.2 °F 35.9 °F 32.0 °F 75% 30.33 in 10.0 mi South 4.6 mph - N/A   Clear
11:15 PM 39.2 °F 37.0 °F 32.0 °F 75% 30.32 in 10.0 mi SSW 3.5 mph - N/A   Clear
11:35 PM 37.4 °F 34.9 °F 32.0 °F 81% 30.32 in 10.0 mi SSW 3.5 mph - N/A   Clear
11:57 PM 37.4 °F 33.8 °F 32.0 °F 81% 30.31 in 10.0 mi SSW 4.6 mph - N/A   Clear